LiveATC.Net - Listen to live air traffic control over the Internet!


ICAO: KBLI  IATA: BLI   Airport: Bellingham International Airport
City: Bellingham   State/Province: Washington
Country: United States   Continent: North America
KBLI METAR Weather: KBLI 250353Z 19003KT 10SM CLR 21/16 A3002 RMK AO2 SLP172 T02060161
KBLI Flight Activity (FlightAware)
KBLI Airport Info   (iFlightPlanner)
KBLI VFR Sectional Chart   (iFlightPlanner) 
KBLI IFR Low Chart   (iFlightPlanner) 

KBLI Tower
Feed Status: UP   Listeners: 0
Listen in your browser - HTML5 player (in browser, HTML5)
Click here to listen with your own player (launches your MP3 player)
Archive Access: KBLI Tower
FacilityFrequency
Bellingham Tower124.900

NOTICE

Unauthorized use prohibited. See LiveATC.net Terms of Service


Airport/ARTCC Code
Frequency Search
(e.g., 124.400, 128.75)
Site-wide search
 


Browse Feeds
Top 50 Feeds
HF Oceanic Feeds
Coverage Map
Bad Weather Areas

LiveATC FAQ
Offer LiveATC feed
Contact LiveATC.net
Press Inquiries

LiveATC on iPhone
LiveATC on Android

Windows Phone
Windows 8/10

LiveATC Mobile
(Mobile browser)

ATC Audio Archives
Interesting Recordings

LiveATC Forums


Home Page
About LiveATC.net
Make a Donation
Terms of Use
Privacy Policy

Canadian Air Freqs

AIRMETs/SIGMETs

FAA Airport Status
NAS Status
Arrival Demand


Server Software By:
Icecast.org
Liquidsoap